Location: Pittman
(37.9557°N, 80.9209°W)
Time: 14:01:44
(UTC+00:00)

Envisat - Pass Details

Date: 19 April 2026
Orbit: 761 x 762 km, 98.4° (Epoch: 15 May)

Event Time Altitude Azimuth Distance (km) Brightness Sun altitude
Rises 07:10:02 0° 25° (NNE) 3,229 7.3 -34.8°
Reaches altitude 10° 07:12:40 10° 37° (NE) 2,299 6.3 -34.5°
Enters shadow 07:16:11 27° 80° (E) 1,448 4.7 -34.1°
